EW7711 Weather Reports


Display with metric or nautical units.
time (UTC)temp
F
wind
direction
speed
MPH
gust
MPH
rain 1hr
in
rain 24hr
in
rain mn
in
humidity
%
barometer
mb
20260507125012 31 247 3.0 4.0 0.00 0.00 0.00 64 1014.0
20260507124111 29 247 4.0 4.0 0.00 0.00 0.00 68 1013.7
20260507123111 28 247 3.0 3.0 0.00 0.00 0.00 68 1013.5
20260507122112 27 270 3.0 4.0 0.00 0.00 0.00 67 1013.4
20260507121111 27 270 4.0 4.0 0.00 0.00 0.00 66 1013.2
20260507120110 27 291 3.0 4.0 0.00 0.00 0.00 66 1013.2
20260507115111 25 292 4.0 4.0 0.00 0.00 0.00 68 1012.9
20260507114111 26 292 4.0 4.0 0.00 0.00 0.00 66 1012.9
20260507113111 28 292 3.0 4.0 0.00 0.00 0.00 64 1012.9
20260507112111 28 292 2.0 3.0 0.00 0.00 0.00 63 1012.9
20260507111111 27 292 3.0 3.0 0.00 0.00 0.00 65 1012.8
20260507110111 27 292 2.0 2.0 0.00 0.00 0.00 65 1012.9
20260507105110 27 292 2.0 3.0 0.00 0.00 0.00 65 1012.9
20260507103110 27 292 3.0 3.0 0.00 0.00 0.00 65 1012.9
20260507102110 28 292 1.0 1.0 0.00 0.00 0.00 61 1013.0
20260507101126 29 292 1.0 1.0 0.00 0.00 0.00 60 1013.1
20260507100212 28 292 0.0 0.0 0.00 0.00 0.00 62 1013.1
20260507095211 28 292 1.0 1.0 0.00 0.00 0.00 63 1013.3
20260507094212 28 292 0.0 0.0 0.00 0.00 0.00 61 1013.2
20260507093310 30 292 0.0 0.0 0.00 0.00 0.00 57 1013.4
20260507092312 32 292 0.0 0.0 0.00 0.00 0.00 55 1013.4
20260507091312 33 292 0.0 1.0 0.00 0.00 0.00 55 1013.4
20260507090410 31 292 2.0 3.0 0.00 0.00 0.00 58 1013.4
20260507084412 32 292 2.0 2.0 0.00 0.00 0.00 55 1013.3
20260507083411 32 292 2.0 2.0 0.00 0.00 0.00 54 1013.3
20260507082509 33 292 2.0 2.0 0.00 0.00 0.00 55 1013.4
20260507074609 31 292 2.0 3.0 0.00 0.00 0.00 57 1013.4
20260507073611 31 270 1.0 1.0 0.00 0.00 0.00 56 1013.4
20260507072612 31 270 2.0 2.0 0.00 0.00 0.00 56 1013.4
20260507071711 31 292 2.0 2.0 0.00 0.00 0.00 55 1013.4
20260507065712 32 292 4.0 5.0 0.00 0.00 0.00 55 1013.6
20260507064712 31 247 1.0 2.0 0.00 0.00 0.00 54 1013.5
20260507063713 32 247 1.0 1.0 0.00 0.00 0.00 52 1013.7
20260507062712 33 270 2.0 3.0 0.00 0.00 0.00 52 1013.7
20260507061710 33 360 0.0 0.0 0.00 0.00 0.00 52 1013.7
20260507060711 32 360 0.0 0.0 0.00 0.00 0.00 53 1013.8
20260507055809 33 360 2.0 2.0 0.00 0.00 0.00 50 1013.8
20260507054806 33 247 2.0 2.0 0.00 0.00 0.00 51 1013.7
20260507053807 32 247 0.0 1.0 0.00 0.00 0.00 50 1013.7
20260507052808 33 247 1.0 1.0 0.00 0.00 0.00 50 1013.8
20260507050806 37 234 1.0 2.0 0.00 0.00 0.00 45 1014.0
20260507045808 37 67 0.0 1.0 0.00 0.00 0.00 44 1013.9
20260507044907 37 67 1.0 2.0 0.00 0.00 0.00 45 1014.0
20260507043907 37 180 1.0 3.0 0.00 0.00 0.00 45 1014.0
20260507043006 37 180 0.0 0.0 0.00 0.00 0.00 44 1014.0
20260507042009 37 180 0.0 1.0 0.00 0.00 0.00 44 1014.0
20260507041008 38 67 1.0 2.0 0.00 0.00 0.00 43 1014.1
20260507040008 38 180 0.0 0.0 0.00 0.00 0.00 43 1014.3
20260507035006 39 180 2.0 3.0 0.00 0.00 0.00 41 1014.3
20260507034008 40 180 1.0 2.0 0.00 0.00 0.00 40 1014.4
20260507033006 41 67 3.0 3.0 0.00 0.00 0.00 37 1014.3
20260507032006 41 180 2.0 3.0 0.00 0.00 0.00 34 1014.4
20260507031005 42 67 4.0 5.0 0.00 0.00 0.00 30 1014.5
20260507030007 43 337 0.0 0.0 0.00 0.00 0.00 27 1014.3
20260507025008 44 337 0.0 0.0 0.00 0.00 0.00 26 1014.5
20260507024106 45 337 1.0 1.0 0.00 0.00 0.00 26 1014.5
20260507023106 44 337 2.0 2.0 0.00 0.00 0.00 26 1014.4
20260507022107 45 337 2.0 2.0 0.00 0.00 0.00 27 1014.5
20260507021108 45 337 1.0 2.0 0.00 0.00 0.00 27 1014.5
20260507015208 47 337 2.0 3.0 0.00 0.00 0.00 26 1014.9
20260507014221 48 315 2.0 3.0 0.00 0.00 0.00 26 1014.9
20260507013207 49 292 3.0 4.0 0.00 0.00 0.00 24 1015.0
20260507012306 50 328 2.0 3.0 0.00 0.00 0.00 23 1014.9
20260507010406 51 295 3.0 4.0 0.00 0.00 0.00 22 1015.0
20260507003407 52 292 5.0 8.0 0.00 0.00 0.00 20 1015.3
20260507002407 53 292 9.0 12.0 0.00 0.00 0.00 20 1015.2
20260507001505 53 329 5.0 6.0 0.00 0.00 0.00 20 1015.4
20260507000506 53 336 6.0 8.0 0.00 0.00 0.00 20 1015.4
20260506235508 53 331 4.0 6.0 0.00 0.00 0.00 19 1015.4
20260506234508 53 281 6.0 7.0 0.00 0.00 0.00 20 1015.6
20260506233505 52 292 8.0 11.0 0.00 0.00 0.00 20 1015.5
20260506232507 52 278 5.0 6.0 0.00 0.00 0.00 21 1015.7
20260506230507 53 285 10.0 14.0 0.00 0.00 0.00 21 1015.6
20260506225509 53 263 9.0 15.0 0.00 0.00 0.00 21 1015.7
20260506224505 53 292 8.0 11.0 0.00 0.00 0.00 21 1016.0
20260506222508 53 260 9.0 11.0 0.00 0.00 0.00 22 1016.2
20260506221606 54 297 7.0 9.0 0.00 0.00 0.00 23 1016.4
20260506220608 53 282 5.0 7.0 0.00 0.00 0.00 24 1016.4
20260506214708 53 282 10.0 13.0 0.00 0.00 0.00 24 1016.8
20260506212808 52 303 5.0 8.0 0.00 0.00 0.00 25 1017.0
20260506211905 52 282 9.0 14.0 0.00 0.00 0.00 25 1017.1
20260506211807 52 258 10.0 15.0 0.00 0.00 0.00 25 1017.1
20260506210807 51 273 9.0 12.0 0.00 0.00 0.00 26 1017.2
20260506205808 50 243 6.0 8.0 0.00 0.00 0.00 26 1017.4
20260506204905 50 269 7.0 15.0 0.00 0.00 0.00 26 1017.5
20260506203906 50 280 6.0 9.0 0.00 0.00 0.00 26 1017.7
20260506202908 51 255 6.0 10.0 0.00 0.00 0.00 26 1017.6
20260506201905 50 290 9.0 13.0 0.00 0.00 0.00 27 1017.8
20260506200907 50 300 7.0 8.0 0.00 0.00 0.00 27 1018.0
20260506195906 50 252 12.0 19.0 0.00 0.00 0.00 29 1018.0
20260506194907 49 273 15.0 20.0 0.00 0.00 0.00 29 1018.1
20260506194006 48 253 12.0 15.0 0.00 0.00 0.00 30 1018.3
20260506193008 49 301 8.0 11.0 0.00 0.00 0.00 30 1018.7
20260506192007 50 257 2.0 4.0 0.00 0.00 0.00 31 1018.8
20260506191007 49 301 6.0 10.0 0.00 0.00 0.00 31 1018.9
20260506190007 49 292 5.0 7.0 0.00 0.00 0.00 31 1018.9
20260506184008 47 294 13.0 18.0 0.00 0.00 0.00 34 1019.1
20260506183024 45 304 11.0 14.0 0.00 0.00 0.00 33 1019.4
20260506181107 47 317 8.0 12.0 0.00 0.00 0.00 33 1019.6
20260506180107 47 318 8.0 11.0 0.00 0.00 0.00 33 1019.9
20260506175205 47 310 7.0 13.0 0.00 0.00 0.00 33 1019.9
20260506174207 46 299 7.0 13.0 0.00 0.00 0.00 34 1019.9
20260506172208 45 290 9.0 12.0 0.00 0.00 0.00 34 1020.2
20260506171305 45 309 9.0 13.0 0.00 0.00 0.00 34 1020.4
20260506165307 44 309 10.0 13.0 0.00 0.00 0.00 35 1020.4
20260506164405 44 324 7.0 10.0 0.00 0.00 0.00 37 1020.7
20260506163408 44 294 11.0 17.0 0.00 0.00 0.00 38 1020.7
20260506162407 44 303 8.0 11.0 0.00 0.00 0.00 38 1020.8
20260506161405 44 319 5.0 9.0 0.00 0.00 0.00 38 1021.0
20260506160408 43 307 8.0 11.0 0.00 0.00 0.00 39 1020.9
20260506155407 43 302 9.0 15.0 0.00 0.00 0.00 40 1021.0
20260506154506 43 320 9.0 15.0 0.00 0.00 0.00 40 1021.1
20260506153507 42 323 6.0 10.0 0.00 0.00 0.00 41 1021.1
20260506152605 42 327 8.0 13.0 0.00 0.00 0.00 41 1021.1
20260506151608 41 298 10.0 15.0 0.00 0.00 0.00 41 1021.2
20260506145705 41 309 7.0 12.0 0.00 0.00 0.00 41 1021.1
20260506143707 40 302 8.0 10.0 0.00 0.00 0.00 43 1021.2
20260506142725 40 294 9.0 13.0 0.00 0.00 0.00 44 1021.3
20260506141705 40 289 10.0 13.0 0.00 0.00 0.00 44 1021.3
20260506140707 39 294 7.0 9.0 0.00 0.00 0.00 44 1021.1
20260506135806 39 291 7.0 9.0 0.00 0.00 0.00 46 1021.2
20260506133809 36 247 6.0 8.0 0.00 0.00 0.00 54 1021.1
20260506133706 36 250 6.0 8.0 0.00 0.00 0.00 54 1021.0
20260506132709 35 247 6.0 8.0 0.00 0.00 0.00 56 1021.0
20260506131706 33 248 5.0 7.0 0.00 0.00 0.00 63 1020.7
20260506130722 31 247 4.0 6.0 0.00 0.00 0.00 67 1020.6